Flag for Ukraine Weather past 2 weeks in Chernobyl, Ukraine

Now
37 °F

Chilly.


Feels Like: 28 °F
Forecast: 31 / 39 °F
Wind: 15 mph from Northwest

Location: Hostomel

Current Time: Mar 5, 2015 at 1:20:45 AM

Latest Report: Mar 5, 2015 at 12:00 AM


Visibility: N/A

Pressure: 30.09 "Hg

Humidity: 87%

Dew point: 34 °F

Location of ChernobylLocation

Historic Weather in Chernobyl — Graph

°F

Chernobyl temperature yesterday

Maximum temperature yesterday: 46 °F (at 3:30 PM)
Minimum temperature yesterday: 32 °F (at 7:00 AM)
Average temperature yesterday: 39 °F

Past Weeks' High & Low Weather Summary

 TemperatureHumidityPressure
High50 °F (Feb 24, 2:30 PM)100% (Feb 19, 6:00 AM)30.74 "Hg (Feb 19, 6:00 AM)
Low5 °F (Feb 18, 8:00 AM)27% (Feb 18, 2:00 PM)29.71 "Hg (Mar 3, 7:00 AM)
Average37 °F87%30.04 "Hg
* Reported Feb 17 11:00 PM — Mar 4 11:00 PM, Chernobyl, Weather by CustomWeather, © 2015

Note: Actual official high and low records may vary slightly from our data, if they occured in-between our weather recording intervals... More about our weather records

Advertising

Chernobyl weather history for previous 24 hours

 ConditionsComfort  
Time TempWeatherWind HumidityBarometerVisibility
11:00 PM
Wed, Mar 4
39 °FChilly.10 mph93%30.07 "HgN/A
10:00 PM37 °FChilly.6 mph75%30.07 "HgN/A
9:00 PM36 °FChilly.6 mph81%30.07 "Hg5 mi
8:00 PM37 °FChilly.3 mph65%30.07 "HgN/A
7:00 PM37 °FChilly.3 mph65%30.07 "HgN/A
6:00 PM41 °FQuite cool.1 mph57%30.07 "HgN/A
5:00 PM45 °FSunny.3 mph49%30.07 "Hg10 mi
4:30 PM45 °FPassing clouds.6 mph46%30.07 "HgN/A
4:00 PM45 °FSunny.8 mph46%30.07 "Hg10 mi
3:30 PM46 °FSunny.8 mph46%30.07 "Hg10 mi
3:00 PM45 °FPartly sunny.8 mph53%30.07 "HgN/A
2:30 PM45 °FPassing clouds.8 mph53%30.07 "HgN/A
2:00 PM43 °FPartly sunny.8 mph57%30.07 "HgN/A
1:30 PM43 °FPartly sunny.8 mph57%30.07 "HgN/A
1:00 PM43 °FPartly sunny.8 mph66%30.07 "HgN/A
12:30 PM43 °FPartly sunny.10 mph66%30.07 "HgN/A
12:00 PM41 °FPartly sunny.13 mph76%30.07 "HgN/A
11:30 AM39 °FBroken clouds.13 mph81%30.07 "HgN/A
11:00 AM41 °FBroken clouds.13 mph76%30.07 "HgN/A
10:30 AM39 °FPartly sunny.13 mph81%30.07 "HgN/A
10:00 AM37 °FBroken clouds.10 mph87%30.07 "HgN/A
9:30 AM37 °FPartly sunny.10 mph87%30.07 "HgN/A
9:00 AM36 °FSunny.10 mph93%30.07 "Hg10 mi
8:00 AM34 °FPartly sunny.8 mph93%30.07 "HgN/A
7:00 AM32 °FSunny.8 mph100%30.04 "Hg10 mi
6:00 AM34 °FChilly.8 mph93%30.04 "HgN/A
5:00 AM34 °FChilly.10 mph93%30.01 "HgN/A
4:00 AM34 °FChilly.13 mph93%30.01 "HgN/A
3:00 AM34 °FChilly.10 mph93%29.98 "HgN/A
2:00 AM34 °FChilly.10 mph87%29.98 "HgN/A
1:00 AM34 °FChilly.10 mph87%29.95 "HgN/A
Weather by CustomWeather, © 2015

See weather overviewHow to use our weather pages